User: anonymous   Login
Location: Unspecified
(0.0000°N, 0.0000°E)
Time: 12:20:28
(UTC+02:00)
Language:

YAOGAN 3 - Orbit

View from above orbital plane
View from above orbital plane
View from above satellite
View from above satellite

Ground track
Ground track

The orbit data is extracted from the following two-line orbital elements,

1 32289U 07055A   16181.77679505  .00000299  00000-0  45779-4 0  9990
2 32289  97.9855 178.8877 0001581  73.8765 286.2604 14.80710582466589
Epoch (UTC): 29 June 2016 18:38:35
Eccentricity: 0.0001581
inclination: 97.9855°
perigee height: 626 km
apogee height: 628 km
right ascension of ascending node: 178.8877°
argument of perigee: 73.8765°
revolutions per day: 14.80710582
mean anomaly at epoch: 286.2604°
orbit number at epoch: 46658

The dashed part of the orbit path shows where the satellite is in the earth's shadow,  

DLR